Biggs Army Air Field / Ft. Bl, TX

4:58 PM MDT on October 16, 2017 (GMT -0600)
Biggs Army Air Field

Weather History for KBIF - January, 2014

Change the Weather History Date:

Friday, January 31, 2014

  Actual Average (KELP) Record (KELP)
Temperature  
Mean Temperature 65 °F -  
Max Temperature 70 °F 57 °F 77 °F (1890)
Min Temperature 60 °F 33 °F 15 °F (1949)
Growing Degree Days 15 (Base 50)    
Moisture  
Dew Point 28 °F    
Average Humidity 25    
Maximum Humidity 34    
Minimum Humidity 18    
Precipitation  
Precipitation 0.00 in - - ()
Sea Level Pressure  
Sea Level Pressure 29.72 in    
Wind  
Wind Speed 23 mph (SW)    
Max Wind Speed 29 mph    
Max Gust Speed 41 mph    
Visibility 8 miles    
Events      
Averages and records for this station are not official NWS values.
T = Trace of Precipitation, MM = Missing Value Source: NWS Daily Summary

Daily Weather History Graph

Daily Weather History Graph

Search for Another Location

Airport or City:

Trip Planner

Search our weather history database for the weather conditions in past years. The results will help you decide how hot, cold, wet, or windy it might be!

Date:

Astronomy

Jan. 31, 2014 Rise Set
Actual Time 6:59 AM MST 5:38 PM MST
Civil Twilight 6:33 AM MST 6:04 PM MST
Nautical Twilight 6:04 AM MST 6:33 PM MST
Astronomical Twilight 5:35 AM MST 7:02 PM MST
Moon 7:17 AM MST (1/31) 6:58 PM MST (1/31)
Length of Visible Light 11h 30m
Length of Day
10h 39m
New Moon, 1% of the Moon is Illuminated
Jan 31
New Moon
Feb 6
First Quarter
Feb 14
Full
Feb 22
Last Quarter
Mar 1
New

Hourly Weather History & Observations

Time (MST) Temp. Dew Point Humidity Pressure Visibility Wind Dir Wind Speed Gust Speed Precip Events Conditions
12:56 AM 66.2 °F 24.8 °F 21% 29.72 in 7.0 mi WSW 25.3 mph 40.3 mph N/A   Clear
1:56 AM 64.4 °F 26.6 °F 24% 29.71 in 7.0 mi WSW 26.5 mph 39.1 mph N/A   Partly Cloudy
2:56 AM 64.4 °F 28.4 °F 26% 29.72 in 7.0 mi WSW 28.8 mph 41.4 mph N/A   Partly Cloudy
3:56 AM 62.8 °F 28.9 °F 28% 29.72 in 7.0 mi WSW 24.2 mph 34.5 mph N/A   Partly Cloudy
4:56 AM 62.6 °F 28.4 °F 27% 29.73 in 7.0 mi WSW 26.5 mph 39.1 mph N/A   Partly Cloudy
5:56 AM 62.6 °F 26.6 °F 26% 29.75 in 7.0 mi WSW 26.5 mph 41.4 mph N/A   Partly Cloudy
6:56 AM 62.6 °F 28.4 °F 27% 29.77 in 7.0 mi SW 20.7 mph 34.5 mph N/A   Mostly Cloudy
7:56 AM 60.8 °F 30.2 °F 31% 29.78 in 7.0 mi SSW 11.5 mph 25.3 mph N/A   Mostly Cloudy
8:56 AM 60.8 °F 32.0 °F 34% 29.81 in 7.0 mi SW 18.4 mph 24.2 mph N/A   Mostly Cloudy
9:56 AM 62.6 °F 30.2 °F 30% 29.81 in 7.0 mi WSW 17.3 mph 25.3 mph N/A   Mostly Cloudy
10:56 AM 64.4 °F 30.2 °F 28% 29.81 in 7.0 mi SW 18.4 mph 26.5 mph N/A   Mostly Cloudy
11:56 AM 65.8 °F 27.9 °F 24% 29.76 in 12.0 mi SW 15.0 mph 21.9 mph N/A   Clear
12:04 PM 68.0 °F 26.6 °F 21% 29.90 in 12.0 mi WSW 18.4 mph 26.5 mph N/A   Clear
12:56 PM 69.8 °F 24.8 °F 18% 29.71 in 6.0 mi SW 21.9 mph 32.2 mph N/A   Widespread Dust
1:56 PM 69.8 °F 24.8 °F 18% 29.66 in 5.0 mi SSW 18.4 mph 33.4 mph N/A   Widespread Dust
2:56 PM 69.8 °F 27.0 °F 20% 29.65 in 10.0 mi SW 23.0 mph 38.0 mph N/A   Mostly Cloudy
3:56 PM 70.2 °F 27.3 °F 20% 29.65 in 11.0 mi WSW 23.0 mph 34.5 mph N/A   Clear
4:56 PM 68.0 °F 28.0 °F 22% 29.66 in 7.0 mi WSW 25.3 mph 33.4 mph N/A   Scattered Clouds
5:56 PM 66.4 °F 28.2 °F 24% 29.66 in 7.0 mi SW 17.3 mph 26.5 mph N/A   Scattered Clouds
6:56 PM 65.1 °F 27.7 °F 24% 29.69 in 7.0 mi WSW 23.0 mph 40.3 mph N/A   Scattered Clouds
7:56 PM 64.4 °F 28.2 °F 26% 29.69 in 7.0 mi WSW 23.0 mph 38.0 mph N/A   Partly Cloudy
8:56 PM 63.3 °F 28.4 °F 27% 29.68 in 12.0 mi SW 20.7 mph 35.7 mph N/A   Partly Cloudy
9:56 PM 62.6 °F 28.8 °F 28% 29.68 in 12.0 mi SW 24.2 mph 34.5 mph N/A   Clear
10:56 PM 62.2 °F 29.1 °F 29% 29.70 in 12.0 mi WSW 24.2 mph 38.0 mph N/A   Clear
11:56 PM 61.7 °F 29.8 °F 30% 29.67 in 12.0 mi WSW 25.3 mph 35.7 mph N/A   Clear